Вернуться в каталог

GSAT 6A

АктивенСвязьMEO
NORAD 43241·PAYLOAD·🇮🇳 India

Запущен Mar 29, 2018 с Satish Dhawan Space Centre

Loading…

Ближайшие Пролёты (ближайшие 24 часа)

TLE

СвежийSource: Space-Track

Эпоха: Sep 14, 2026, 18:37 UTC

1 43241U 18027A   26257.77631624 -.00000119  00000-0  00000-0 0  9992
2 43241   3.4333  79.5105 1322379 116.7223 264.9606  1.19316511 36930

Отслеживайте GSAT 6A в реальном времени с AllMySat

Download on the App Store